This is the latest recevied weather packets stored in our database for station/object EB5AGF-13. If no packets are shown the sender has not sent any weather packets the latest 10 day(s).
| Time | Temp. | Humidity | Pressure | Rain* | Wind** | Luminosity | Snow |
|---|---|---|---|---|---|---|---|
| 1777972120 | 22.22° C | 46% | 1009.3 hPa | 0 mm | 3.13 m/s, 165° | 433 W/m² | - |
| 1777971812 | 22.22° C | 46% | 1009.2 hPa | 0 mm | 0.89 m/s, 208° | 434 W/m² | - |
| 1777971511 | 22.78° C | 47% | 1009.4 hPa | 0 mm | 1.34 m/s, 123° | 433 W/m² | - |
| 1777971208 | 22.22° C | 47% | 1009.3 hPa | 0 mm | 1.34 m/s, 186° | 428 W/m² | - |
| 1777970904 | 22.22° C | 47% | 1009.4 hPa | 0 mm | 2.24 m/s, 214° | 418 W/m² | - |
| 1777970600 | 22.78° C | 46% | 1009.3 hPa | 0 mm | 0.89 m/s, 216° | 405 W/m² | - |
| 1777970295 | 22.78° C | 47% | 1009.2 hPa | 0 mm | 0.89 m/s, 285° | 392 W/m² | - |
| 1777969992 | 22.22° C | 49% | 1009.3 hPa | 0 mm | 0 m/s | 358 W/m² | - |
| 1777969687 | 22.22° C | 51% | 1009.4 hPa | 0 mm | 0.45 m/s, 222° | 364 W/m² | - |
| 1777969352 | 22.78° C | 52% | 1009.3 hPa | 0 mm | 0 m/s | 341 W/m² | - |
| 1777969017 | 22.22° C | 52% | 1009.3 hPa | 0 mm | 0 m/s | 332 W/m² | - |
| 1777968712 | 22.22° C | 53% | 1009.1 hPa | 0 mm | 0.89 m/s, 204° | 321 W/m² | - |
| 1777968408 | 21.67° C | 52% | 1009.5 hPa | 0 mm | 1.34 m/s, 196° | 309 W/m² | - |
| 1777968104 | 21.67° C | 50% | 1009.4 hPa | 0 mm | 0.89 m/s, 83° | 298 W/m² | - |
| 1777967800 | 21.67° C | 51% | 1009.2 hPa | 0 mm | 0.45 m/s, 169° | 280 W/m² | - |
| 1777967496 | 21.11° C | 49% | 1009.3 hPa | 0 mm | 0.89 m/s, 169° | 269 W/m² | - |
| 1777967192 | 21.67° C | 48% | 1009.4 hPa | 0 mm | 1.34 m/s, 171° | 254 W/m² | - |
| 1777966888 | 21.11° C | 48% | 1009.3 hPa | 0 mm | 0.89 m/s, 183° | 241 W/m² | - |
| 1777966584 | 21.11° C | 49% | 1009.2 hPa | 0 mm | 0.89 m/s, 200° | 229 W/m² | - |
| 1777966280 | 21.11° C | 51% | 1009.4 hPa | 0 mm | 0.89 m/s, 208° | 221 W/m² | - |
| 1777965976 | 21.11° C | 49% | 1009.5 hPa | 0 mm | 0.45 m/s, 173° | 204 W/m² | - |
| 1777965673 | 21.11° C | 51% | 1009.3 hPa | 0 mm | 0 m/s | 196 W/m² | - |
| 1777965368 | 20.56° C | 52% | 1009.3 hPa | 0 mm | 0 m/s | 184 W/m² | - |
| 1777965064 | 20.56° C | 52% | 1009.2 hPa | 0 mm | 0.45 m/s, 92° | 174 W/m² | - |
| 1777964760 | 20.56° C | 54% | 1009.3 hPa | 0 mm | 0 m/s | 163 W/m² | - |
* Rain latest hour (hover to see other rain measurements)
** Current wind speed in m/s (hover to see current wind gust speed)